This demonstration page uses our WeatherBlox Daily Observations layout. Learn more.

39.92423, -83.80882

Hourly Observations for September 27, 2016

Temp ( °F °C ) Dew Point ( °F °C ) Humidity (%) Winds ( mph kmh ) Pressure ( in mb ) Visibility ( mi km ) Precip ( " mm )
12:56 am 00:56 Clear 52 11.1 49 9.4 89 89 SW 8 13 30.02 1017 10 16.0934 0 0
1:56 am 01:56 Clear 51 10.6 48 8.9 89 89 SW 7 11 30.01 1016 10 16.0934 0 0
2:56 am 02:56 Clear 50 10 48 8.9 93 93 SW 5 7 30.01 1016 10 16.0934 0 0
3:56 am 03:56 Clear 50 10 48 8.9 93 93 SSW 7 11 30 1016 10 16.0934 0 0
4:56 am 04:56 Clear 48 8.9 47 8.3 96 96 SW 6 9 29.99 1016 10 16.0934 0 0
5:56 am 05:56 Clear 49 9.4 47 8.3 93 93 SSW 7 11 29.98 1015 10 16.0934 0 0
6:56 am 06:56 Clear 49 9.4 47 8.3 93 93 SSW 7 11 29.98 1015 10 16.0934 0 0
7:56 am 07:56 Sunny 49 9.4 47 8.3 93 93 SSW 8 13 29.98 1015 10 16.0934 0 0
8:56 am 08:56 Sunny 53 11.7 48 8.9 83 83 SSW 10 17 29.98 1015 10 16.0934 0 0
9:56 am 09:56 Sunny 58 14.4 49 9.4 72 72 SW 8 13 29.97 1015 10 16.0934 0 0
10:56 am 10:56 Sunny 64 17.8 48 8.9 56 56 SW 9 15 29.96 1014 10 16.0934 0 0
11:56 am 11:56 Sunny 69 20.6 44 6.7 41 41 WSW 18 30 29.93 1014 10 16.0934 0 0
12:56 pm 12:56 Sunny 71 21.7 44 6.7 38 38 WSW 20 31 29.91 1013 10 16.0934 0 0
1:56 pm 13:56 Sunny 72 22.2 45 7.2 38 38 WSW 15 24 29.88 1012 10 16.0934 0 0
2:56 pm 14:56 Mostly Sunny 74 23.3 44 6.7 34 34 SW 15 24 29.85 1011 10 16.0934 0 0
3:56 pm 15:56 Partly Cloudy 73 22.8 45 7.2 37 37 SW 16 26 29.84 1011 10 16.0934 0 0
4:56 pm 16:56 Sunny 73 22.8 45 7.2 37 37 SW 15 24 29.83 1010 10 16.0934 0 0
6:56 pm 18:56 Mostly Cloudy 69 20.6 46 7.8 44 44 SW 10 17 29.84 1010 10 16.0934 0 0
7:56 pm 19:56 Clear 63 17.2 47 8.3 56 56 SSW 5 7 29.85 1011 10 16.0934 0 0
8:56 pm 20:56 Clear 61 16.1 47 8.3 60 60 S 5 7 29.86 1011 10 16.0934 0 0
9:56 pm 21:56 Clear 61 16.1 47 8.3 60 60 S 6 9 29.87 1011 10 16.0934 0 0
10:56 pm 22:56 Clear 59 15 47 8.3 64 64 S 6 9 29.87 1011 10 16.0934 0 0
11:56 pm 23:56 Clear 58 14.4 47 8.3 67 67 S 6 9 29.86 1011 10 16.0934 0 0

Powered by AerisWeather